Regional Weather Roundup
Issued by NWS

Home | Current Version | Previous Version | Text Only | Print | Product List | Glossary Off
Versions: 1 2 3 4 5 6 7 8 9 10 11 12 13 14 15 16 17 18 19 20 21 22 23 24 25 26 27 28 29 30 31 32 33 34 35 36 37 38 39 40 41 42 43 44 45 46 47 48 49 50

000
ASUS45 KBOU 271507
RWRCO

WEATHER ROUNDUP FOR COLORADO
NATIONAL WEATHER SERVICE DENVER/BOULDER CO
900 AM MDT MON APR 27 2015

NOTE: "FAIR" INDICATES FEW OR NO CLOUDS BELOW 12000 FEET WITH NO
SIGNIFICANT WEATHER AND/OR OBSTRUCTIONS TO VISIBILITY.

COZ001>005-013-030-031-271600-
...NORTHWEST COLORADO...

CITY           SKY/WX    TMP DP  RH WIND       PRES   REMARKS
CRAIG          CLOUDY    43  39  86 W3        30.19R
HAYDEN         MOSUNNY   43  36  75 CALM      30.18R
MEEKER         CLOUDY    42  37  82 SW3       30.18R
MOUNT WERNER   NOT AVBL
STEAMBOAT SPGS CLOUDY    40  35  82 CALM      30.18S
WALDEN         MOSUNNY   36  28  75 N3        30.21R
$$

COZ006>008-011-271600-
...WEST CENTRAL VALLEYS...

CITY           SKY/WX    TMP DP  RH WIND       PRES   REMARKS
GRAND JUNCTION SUNNY     52  38  58 CALM      30.11R
MONTROSE       MOSUNNY   44  41  89 CALM      30.16R
EAGLE          FOG       37  36  93 CALM      30.20R VSB 1
RIFLE          CLOUDY    47  38  71 SE3       30.15R
DELTA          CLOUDY    49  42  76 MISG      30.14R
NUCLA          SUNNY     45  37  76 CALM      30.14R
$$

COZ017>023-064>068-271600-
...SOUTHWEST COLORADO...

CITY           SKY/WX    TMP DP  RH WIND       PRES   REMARKS
DURANGO        SUNNY     43  37  79 CALM      30.07R
CORTEZ         SUNNY     48  36  63 CALM      30.08R
PAGOSA SPRINGS SUNNY     47  27  46 NE16G29   30.09R
TELLURIDE      MOSUNNY   34  31  89 CALM      30.16R
WOLF CREEK PAS NOT AVBL
$$

COZ009-010-012-014-032>034-037-058>063-271600-
...CENTRAL COLORADO...

CITY           SKY/WX    TMP DP  RH WIND       PRES   REMARKS
ASPEN          MOSUNNY   40  31  70 CALM      30.16R
BUENA VISTA    CLOUDY    40  34  77 CALM      30.19R
COPPER MTN     CLOUDY    28  21  74 E15       30.25R WCI  17
BERTHOUD PASS  HAZE      21  14  73 MISG      30.28R VSB<1/4
COTTONWOOD PAS CLOUDY    34  32  93 SE3       30.23R
GUNNISON       SUNNY     37  30  75 W3        30.18R
KREMMLING      SUNNY     37  30  75 CALM      30.20S
LEADVILLE      LGT SNOW  30  28  92 CALM      30.21R FOG
MONARCH PASS   CLOUDY    25  23  93 MISG      30.29S
SALIDA         CLOUDY    38  35  89 SE3       30.27R
SUNLIGHT       CLOUDY    32  32 100 NE6       30.26R WCI  26
WILKERSON PASS FOG      N/A N/A N/A NE5       30.26R VSB 1/2
$$

COZ069>075-271600-
...SAN LUIS VALLEY/SANGRE DE CRISTO MOUNTAINS...

CITY           SKY/WX    TMP DP  RH WIND       PRES   REMARKS
ALAMOSA        MOSUNNY   43  29  57 N14       30.11R
LA VETA PASS   SNOW      27  25  93 MISG      30.15R VSB 1/2
SAGUACHE       SUNNY     45  28  53 N3        30.13R
$$

COZ035-036-038>040-271600-
...NORTHERN COLORADO FRONT RANGE...

CITY           SKY/WX    TMP DP  RH WIND       PRES   REMARKS
DENVER INTL AP CLOUDY    39  39 100 N6        30.25R
DMNS CITY PARK   N/A     40  37  89 N7        30.26R
AURORA         NOT AVBL
FRONT RANGE AP DRIZZLE   39  39 100 NW6       30.25R
ERIE MUNI ARPT DRIZZLE   40  39  96 N5        30.26R
BOULDER MUN AP DRIZZLE   39  39 100 N3        30.26R
CENTENNIAL     LGT RAIN  37  36  96 NE3       30.24R
BROOMFIELD     CLOUDY    39  39 100 N5        30.26
FORT COLLINS   CLOUDY    39  36  87 NW5       30.27R
LONGMONT       DRIZZLE   42  40  91 CALM      30.28R
$$

COZ041-046-047-076>085-087-088-271600-
...PIKES PEAK/PALMER DIVIDE AND SOUTHERN FOOTHILLS...

CITY           SKY/WX    TMP DP  RH WIND       PRES   REMARKS
COLO. SPRINGS  CLOUDY    41  35  79 N12       30.21R
A. F. ACADEMY  LGT RAIN  37  36  97 N8        30.22R
ELLICOTT       CLOUDY   N/A N/A N/A NE16      30.20R
FALCON         LGT RAIN  36  35  94 N10G17    30.22R
FORT CARSON    NOT AVBL
LIMON          CLOUDY    38  37  97 NE14      30.22R
MONUMENT HILL  FLURRIES  32  32 100 N8        30.21R WCI  25
TRINIDAD       LGT RAIN  37  35  92 N18G26    30.15R
$$

COZ042>045-048>051-090-091-271600-
...NORTHEAST COLORADO...

CITY           SKY/WX    TMP DP  RH WIND       PRES   REMARKS
GREELEY ARPT   CLOUDY    41  34  75 N5        30.26R
AKRON          CLOUDY    41  39  93 E8        30.23R FOG
BURLINGTON     CLOUDY    45  38  76 NE16      30.19R
WRAY           MOSUNNY   50  39  66 NE7       30.23R
STERLING       CLOUDY    43  43 100 NE6       30.24R FOG
HOLYOKE        MOSUNNY   54  43  66 E7        30.24R
FORT MORGAN    CLOUDY    42  40  95 NE9       30.25R FOG
$$

COZ086-089-092>099-271600-
...SOUTHEAST COLORADO...

CITY           SKY/WX    TMP DP  RH WIND       PRES   REMARKS
PUEBLO         LGT RAIN  42  39  89 NE14      30.20R
LA JUNTA       LGT RAIN  44  40  85 MISG      30.17R
LAMAR          CLOUDY    46  42  86 NE20      30.13R
SPRINGFIELD      N/A     40  38  93 NE24G32   30.08R
$$



USA.gov is the U.S. government's official web portal to all federal, state and local government web resources and services.